Simultaneous Nadir Overpasses (SNOs) Predictions

Prediction of SNOs between GOES-16 and LANDSAT-8 Satellite Orbit:

Table of predicted SNOs for the next 14.0 days since TLE Epoch: 4/4/2025
Index Date Time (GOES-16) GOES-16 Lat,Lon LANDSAT-8 Lat,Lon Distance(km) Time Diff (sec)
1 04/05/2025 15:14:54 0.06, -75.49 0.04, -75.41 9.62 80
2 04/07/2025 15:02:41 0.06, -75.49 -0.56, -72.44 346.12 80
3 04/08/2025 03:24:05 -0.06, -75.48 -0.53, -77.64 245.25 80
4 04/10/2025 03:09:12 -0.06, -75.50 0.11, -74.68 92.73 80
5 04/10/2025 15:30:27 0.06, -75.51 0.99, -79.83 491.96 80
6 04/12/2025 02:56:59 -0.06, -75.52 0.77, -71.73 431.65 80
7 04/12/2025 15:18:14 0.06, -75.53 0.32, -76.88 152.84 80
8 04/14/2025 15:08:40 0.06, -75.56 -0.32, -73.92 186.88 80
9 04/15/2025 03:30:02 -0.05, -75.56 -0.80, -79.11 403.39 80
10 04/17/2025 03:17:48 -0.05, -75.58 -0.18, -76.14 63.38 80
